Weather History for KMEZ - July, 2013

Change the Weather History Date:

Tuesday, July 23, 2013

  Actual Average (KDEQ) Record (KDEQ)
Temperature  
Mean Temperature 88 °F 81 °F  
Max Temperature 98 °F 93 °F 106 °F (1943)
Min Temperature 73 °F 70 °F 57 °F (1947)
Degree Days  
Heating Degree Days 0 0  
Month to date heating degree days 0  
Since 1 June heating degree days 0  
Since 1 July heating degree days 0  
Cooling Degree Days 22 16  
Month to date cooling degree days 367  
Year to date cooling degree days 962  
Since 1 June cooling degree days 745  
Growing Degree Days 38 (Base 50)    
Moisture  
Dew Point 71 °F    
Average Humidity 61    
Maximum Humidity 100    
Minimum Humidity 41    
Precipitation  
Precipitation 0.30 in 0.10 in 2.52 in (1949)
Month to date precipitation 2.99  
Year to date precipitation 28.63  
Snow  
Snow 0.00 in - - ()
Month to date snowfall  
Since 1 June snowfall  
Since 1 July snowfall  
Snow Depth -    
Sea Level Pressure  
Sea Level Pressure 29.94 in    
Wind  
Wind Speed 7 mph (SW)    
Max Wind Speed 16 mph    
Max Gust Speed 24 mph    
Visibility 10 miles    
Events Thunderstorm    
T = Trace of Precipitation, MM = Missing Value Source: NWS Daily Summary

Daily Weather History Graph

Daily Weather History Graph

Search for Another Location

Airport or City:

Trip Planner

Search our weather history database for the weather conditions in past years. The results will help you decide how hot, cold, wet, or windy it might be!

Date:

Astronomy

Jul. 23, 2013 Rise Set
Actual Time 6:20 AM CDT 8:25 PM CDT
Civil Twilight 5:52 AM CDT 8:53 PM CDT
Nautical Twilight 5:18 AM CDT 9:27 PM CDT
Astronomical Twilight 4:41 AM CDT 10:04 PM CDT
Moon 9:01 PM CDT (7/23) 7:25 AM CDT (7/23)
Length of Visible Light 15h 00m
Length of Day
14h 04m
Full, 99% of the Moon is Illuminated
Jul 23
Full
Jul 29
Last Quarter
Aug 6
New
Aug 14
First Quarter
Aug 20
Full

Hourly Weather History & Observations

Time (CDT) Temp. Heat Index Dew Point Humidity Pressure Visibility Wind Dir Wind Speed Gust Speed Precip Events Conditions
12:15 AM 87.8 °F 91.4 °F 68.0 °F 52% 29.95 in 10.0 mi SW 8.1 mph - N/A   Clear
12:35 AM 87.8 °F 91.4 °F 68.0 °F 52% 29.96 in 10.0 mi SW 8.1 mph - N/A   Clear
12:55 AM 87.8 °F 91.4 °F 68.0 °F 52% 29.96 in 10.0 mi SW 5.8 mph - N/A   Clear
1:15 AM 86.0 °F 89.4 °F 68.0 °F 55% 29.96 in 10.0 mi SSW 6.9 mph - N/A   Clear
1:35 AM 87.8 °F 91.4 °F 68.0 °F 52% 29.96 in 10.0 mi SW 6.9 mph - N/A   Clear
1:55 AM 86.0 °F 89.4 °F 68.0 °F 55% 29.96 in 10.0 mi SW 8.1 mph - N/A   Clear
2:15 AM 86.0 °F 90.4 °F 69.8 °F 58% 29.95 in 10.0 mi SW 5.8 mph - N/A   Clear
2:35 AM 86.0 °F 90.4 °F 69.8 °F 58% 29.95 in 10.0 mi SW 8.1 mph - N/A   Clear
2:55 AM 86.0 °F 90.4 °F 69.8 °F 58% 29.95 in 10.0 mi SW 4.6 mph - N/A   Clear
3:15 AM 86.0 °F 90.4 °F 69.8 °F 58% 29.96 in 10.0 mi SW 6.9 mph - N/A   Clear
3:35 AM 84.2 °F 88.4 °F 69.8 °F 62% 29.96 in 10.0 mi SW 8.1 mph - N/A   Clear
3:55 AM 84.2 °F 88.4 °F 69.8 °F 62% 29.95 in 10.0 mi SW 6.9 mph - N/A   Clear
4:15 AM 82.4 °F 86.3 °F 69.8 °F 66% 29.95 in 10.0 mi WSW 8.1 mph - N/A   Clear
4:35 AM 82.4 °F 86.3 °F 69.8 °F 66% 29.95 in 10.0 mi SW 9.2 mph - N/A   Clear
4:55 AM 82.4 °F 87.2 °F 71.6 °F 70% 29.95 in 10.0 mi SW 8.1 mph - N/A   Clear
5:15 AM 82.4 °F 87.2 °F 71.6 °F 70% 29.94 in 10.0 mi SW 6.9 mph - N/A   Clear
5:35 AM 82.4 °F 87.2 °F 71.6 °F 70% 29.95 in 10.0 mi WSW 8.1 mph - N/A   Clear
5:55 AM 80.6 °F 84.6 °F 71.6 °F 74% 29.96 in 10.0 mi WSW 6.9 mph - N/A   Clear
6:15 AM 80.6 °F 84.6 °F 71.6 °F 74% 29.96 in 10.0 mi WSW 5.8 mph - N/A   Clear
6:35 AM 80.6 °F 84.6 °F 71.6 °F 74% 29.96 in 10.0 mi WSW 6.9 mph - N/A   Clear
6:55 AM 80.6 °F 84.6 °F 71.6 °F 74% 29.97 in 10.0 mi WSW 8.1 mph - N/A   Clear
7:15 AM 82.4 °F 87.2 °F 71.6 °F 70% 29.97 in 10.0 mi WSW 9.2 mph - N/A   Clear
7:35 AM 82.4 °F 87.2 °F 71.6 °F 70% 29.97 in 10.0 mi WSW 12.7 mph 18.4 mph N/A   Clear
7:55 AM 82.4 °F 87.2 °F 71.6 °F 70% 29.98 in 10.0 mi WSW 11.5 mph 19.6 mph N/A   Clear
8:15 AM 82.4 °F 87.2 °F 71.6 °F 70% 29.98 in 10.0 mi WSW 12.7 mph 18.4 mph N/A   Clear
8:35 AM 84.2 °F 89.6 °F 71.6 °F 66% 29.99 in 10.0 mi WSW 10.4 mph 18.4 mph N/A   Clear
8:55 AM 86.0 °F 91.8 °F 71.6 °F 62% 29.99 in 10.0 mi West 10.4 mph - N/A   Clear
9:15 AM 86.0 °F 91.8 °F 71.6 °F 62% 29.99 in 10.0 mi West 8.1 mph - N/A   Clear
9:35 AM 87.8 °F 93.8 °F 71.6 °F 58% 29.99 in 10.0 mi WSW 6.9 mph - N/A   Clear
9:55 AM 87.8 °F 93.8 °F 71.6 °F 58% 29.99 in 10.0 mi West 9.2 mph - N/A   Clear
10:15 AM 87.8 °F 93.8 °F 71.6 °F 58% 30.00 in 10.0 mi WSW 9.2 mph - N/A   Clear
10:35 AM 89.6 °F 96.2 °F 71.6 °F 55% 29.99 in 10.0 mi WSW 10.4 mph - N/A   Clear
10:55 AM 89.6 °F 96.2 °F 71.6 °F 55% 29.99 in 10.0 mi WSW 4.6 mph - N/A   Clear
11:15 AM 91.4 °F 98.4 °F 71.6 °F 52% 29.99 in 10.0 mi SW 5.8 mph - N/A   Clear
11:35 AM 91.4 °F 98.4 °F 71.6 °F 52% 29.98 in 10.0 mi WSW 6.9 mph - N/A   Clear
11:55 AM 91.4 °F 98.4 °F 71.6 °F 52% 29.98 in 10.0 mi SW 8.1 mph - N/A   Clear
12:15 PM 91.4 °F 98.4 °F 71.6 °F 52% 29.97 in 10.0 mi WSW 8.1 mph - N/A   Clear
12:35 PM 93.2 °F 100.5 °F 71.6 °F 49% 29.97 in 10.0 mi West 10.4 mph - N/A   Scattered Clouds
12:55 PM 95.0 °F 103.2 °F 71.6 °F 47% 29.96 in 10.0 mi WSW 5.8 mph - N/A   Scattered Clouds
1:15 PM 95.0 °F 103.2 °F 71.6 °F 47% 29.96 in 10.0 mi West 9.2 mph - N/A   Scattered Clouds
1:35 PM 96.8 °F 105.1 °F 71.6 °F 44% 29.95 in 10.0 mi WSW 8.1 mph - N/A   Scattered Clouds
1:55 PM 96.8 °F 105.1 °F 71.6 °F 44% 29.94 in 10.0 mi SSW 5.8 mph - N/A   Scattered Clouds
2:15 PM 95.0 °F 103.2 °F 71.6 °F 47% 29.93 in 10.0 mi West 8.1 mph - N/A   Scattered Clouds
2:35 PM 96.8 °F 105.1 °F 71.6 °F 44% 29.92 in 10.0 mi WSW 8.1 mph - N/A   Mostly Cloudy
2:55 PM 96.8 °F 103.1 °F 69.8 °F 41% 29.91 in 10.0 mi South 5.8 mph - N/A   Scattered Clouds
3:15 PM 96.8 °F 105.1 °F 71.6 °F 44% 29.90 in 10.0 mi SW 5.8 mph - N/A   Scattered Clouds
3:35 PM 96.8 °F 103.1 °F 69.8 °F 41% 29.89 in 10.0 mi SW 5.8 mph - N/A   Scattered Clouds
3:55 PM 98.6 °F 107.7 °F 71.6 °F 42% 29.88 in 10.0 mi SW 4.6 mph - N/A   Clear
4:15 PM 96.8 °F 103.1 °F 69.8 °F 41% 29.90 in 10.0 mi WSW 8.1 mph - N/A   Mostly Cloudy
4:35 PM 95.0 °F 101.3 °F 69.8 °F 44% 29.89 in 10.0 mi WSW 3.5 mph - N/A   Mostly Cloudy
4:55 PM 93.2 °F 100.5 °F 71.6 °F 49% 29.87 in 10.0 mi WSW 3.5 mph - N/A Thunderstorm Scattered Clouds
5:15 PM 93.2 °F 100.5 °F 71.6 °F 49% 29.86 in 10.0 mi SSW 3.5 mph - N/A   Clear
5:35 PM 91.4 °F 100.1 °F 73.4 °F 55% 29.87 in 10.0 mi West 10.4 mph - N/A   Scattered Clouds
5:55 PM 89.6 °F 94.7 °F 69.8 °F 52% 29.88 in 10.0 mi West 16.1 mph - N/A   Scattered Clouds
6:15 PM 87.8 °F 91.4 °F 68.0 °F 52% 29.89 in 10.0 mi West 8.1 mph - N/A   Scattered Clouds
6:35 PM 87.8 °F 91.4 °F 68.0 °F 52% 29.90 in 10.0 mi Calm Calm - N/A   Clear
6:55 PM 80.6 °F 83.2 °F 68.0 °F 65% 29.91 in 10.0 mi East 9.2 mph 20.7 mph N/A   Mostly Cloudy
7:15 PM 80.6 °F 83.2 °F 68.0 °F 65% 29.93 in 10.0 mi East 3.5 mph - N/A   Scattered Clouds
7:35 PM 80.6 °F 83.2 °F 68.0 °F 65% 29.94 in 10.0 mi Calm Calm - N/A   Mostly Cloudy
7:55 PM 80.6 °F 83.2 °F 68.0 °F 65% 29.93 in 10.0 mi East 4.6 mph - N/A   Overcast
8:15 PM 80.6 °F 84.6 °F 71.6 °F 74% 29.91 in 10.0 mi SW 5.8 mph - N/A   Scattered Clouds
8:35 PM 78.8 °F - 71.6 °F 78% 29.92 in 10.0 mi Calm Calm - N/A   Clear
8:55 PM 78.8 °F - 69.8 °F 74% 29.92 in 10.0 mi Calm Calm - N/A   Clear
9:15 PM 78.8 °F - 69.8 °F 74% 29.92 in 10.0 mi South 3.5 mph - N/A   Scattered Clouds
9:35 PM 77.0 °F - 69.8 °F 78% 29.92 in 10.0 mi Calm Calm - N/A   Clear
9:55 PM 77.0 °F - 69.8 °F 78% 29.92 in 10.0 mi Calm Calm - N/A   Clear
10:15 PM 77.0 °F - 69.8 °F 78% 29.93 in 10.0 mi Calm Calm - N/A   Scattered Clouds
10:35 PM 77.0 °F - 69.8 °F 78% 29.93 in 10.0 mi Calm Calm - N/A Thunderstorm Mostly Cloudy
10:55 PM 78.8 °F - 69.8 °F 74% 29.95 in 10.0 mi East 8.1 mph - N/A Thunderstorm Overcast
11:15 PM 78.8 °F - 69.8 °F 74% 29.96 in 10.0 mi East 3.5 mph - N/A Thunderstorm Overcast
11:35 PM 77.0 °F - 69.8 °F 78% 29.96 in 10.0 mi ESE 12.7 mph 24.2 mph N/A Thunderstorm Thunderstorm
11:55 PM 73.4 °F - 73.4 °F 100% 29.96 in 2.5 mi East 10.4 mph 17.3 mph 0.30 in Thunderstorm Thunderstorm